Location: *
(49.9853°N, 3.5569°E)
Time: 14:46:45
(UTC+00:00)

Cosmos 2218 Rocket - Pass Details

Date: 22 September 2019
Orbit: 956 x 1006 km, 82.9° (Epoch: 18 October)

Event Time Altitude Azimuth Distance (km) Brightness Sun altitude
Rises 18:43:20 0° 353° (N) 3,743 7.3 -10.2°
Reaches altitude 10° 18:46:00 10° 359° (N) 2,784 6.6 -10.6°
Maximum altitude 18:52:09 47° 73° (ENE) 1,298 4.3 -11.6°
Drops below altitude 10° 18:58:11 10° 146° (SE) 2,737 5.9 -12.5°
Enters shadow 18:59:16 - 149° (SSE) 3,120 6.2 -12.7°
